Location: Cave
(41.8160°N, 12.9350°E)
Time: 10:24:43
(UTC+02:00)

ISS - Pass Details

Date: 08 July 2019
Orbit: 409 x 418 km, 51.6° (Epoch: 17 July)

Event Time Altitude Azimuth Distance (km) Brightness Sun altitude
Rises 04:51:16 0° 293° (WNW) 2,342 -0.2 -8.3°
Reaches altitude 10° 04:54:01 10° 318° (NW) 1,479 -1.0 -7.9°
Maximum altitude 04:56:03 15° 356° (N) 1,205 -0.9 -7.6°
Drops below altitude 10° 04:58:05 10° 34° (NE) 1,478 0.5 -7.3°
Sets 05:00:50 0° 59° (ENE) 2,339 2.4 -6.9°
